Location: ????????
(56.1167°N, 38.6333°E)
Time: 21:53:50
(UTC+00:00)

Cosmos 1725 Rocket - Pass Details

Date: 18 November 2025
Orbit: 962 x 989 km, 82.9° (Epoch: 06 December)

Event Time Altitude Azimuth Distance (km) Brightness Sun altitude
Rises 13:58:28 0° 179° (S) 3,675 7.4 -6.4°
Reaches altitude 10° 14:00:58 10° 177° (S) 2,734 6.7 -6.8°
Maximum altitude 14:07:11 68° 96° (E) 1,061 4.1 -7.6°
Drops below altitude 10° 14:13:28 10° 15° (NNE) 2,763 6.0 -8.4°
Sets 14:16:01 0° 13° (NNE) 3,717 6.7 -8.7°
